Weather History for High Island 179A, LA

Change the Weather History Date:

Saturday, November 3, 2012

  Actual Average Record
Temperature  
Mean Temperature 78 °F -  
Max Temperature 82 °F - - ()
Min Temperature 73 °F - - ()
Cooling Degree Days 12    
Growing Degree Days 28 (Base 50)    
Moisture  
Dew Point 68 °F    
Average Humidity 73    
Maximum Humidity 83    
Minimum Humidity 62    
Precipitation  
Precipitation 0.00 in - - ()
Sea Level Pressure  
Sea Level Pressure 30.04 in    
Wind  
Wind Speed 10 mph (SSW)    
Max Wind Speed 15 mph    
Max Gust Speed 18 mph    
Visibility 10 miles    
Events      
T = Trace of Precipitation, MM = Missing Value Source: NWS Daily Summary

Daily Weather History Graph

Daily Weather History Graph

Search for Another Location

Airport:

Trip Planner

Search our weather history database for the weather conditions in past years. The results will help you decide how hot, cold, wet, or windy it might be!

Date:

Astronomy

Nov. 03, 2012 Rise Set
Actual Time 7:32 AM CDT 6:30 PM CDT
Civil Twilight 7:08 AM CDT 6:54 PM CDT
Nautical Twilight 6:39 AM CDT 7:22 PM CDT
Astronomical Twilight 6:12 AM CDT 7:50 PM CDT
Moon 10:18 PM CDT (11/3) 11:29 AM CDT (11/3)
Length of Visible Light 11h 46m
Length of Day
10h 57m
Waning Gibbous, 80% of the Moon is Illuminated
Nov 3
Waning Gibbous
Nov 6
Last Quarter
Nov 13
New
Nov 20
First Quarter
Nov 28
Full

Hourly Weather History & Observations

Time (CDT) Temp. Heat Index Dew Point Humidity Pressure Visibility Wind Dir Wind Speed Gust Speed Precip Events Conditions
12:15 AM 75.2 °F - 68.0 °F 78% 30.02 in 10.0 mi SSW 9.2 mph 16.1 mph N/A   Unknown
12:35 AM 75.2 °F - 68.0 °F 78% 30.02 in 10.0 mi SSW 12.7 mph - N/A   Unknown
12:55 AM 75.2 °F - 68.0 °F 78% 30.01 in 10.0 mi South 9.2 mph 16.1 mph N/A   Unknown
1:15 AM 75.2 °F - 68.0 °F 78% 30.01 in 10.0 mi SSW 10.4 mph 17.3 mph N/A   Unknown
1:35 AM 75.2 °F - 68.0 °F 78% 30.01 in 10.0 mi South 11.5 mph - N/A   Unknown
1:55 AM 75.2 °F - 68.0 °F 78% 30.01 in 10.0 mi South 11.5 mph 17.3 mph N/A   Unknown
2:15 AM 75.2 °F - 68.0 °F 78% 30.01 in 10.0 mi South 11.5 mph 18.4 mph N/A   Unknown
2:35 AM 75.2 °F - 68.0 °F 78% 30.01 in 10.0 mi South 15.0 mph - N/A   Unknown
2:55 AM 75.2 °F - 68.0 °F 78% 30.01 in 10.0 mi South 13.8 mph - N/A   Unknown
3:15 AM 75.2 °F - 66.2 °F 73% 30.01 in 10.0 mi SSW 9.2 mph 18.4 mph N/A   Unknown
3:35 AM 75.2 °F - 66.2 °F 73% 30.01 in 10.0 mi SSW 11.5 mph - N/A   Unknown
3:55 AM 77.0 °F - 66.2 °F 69% 30.01 in 10.0 mi SSW 13.8 mph - N/A   Unknown
4:15 AM 75.2 °F - 66.2 °F 73% 30.01 in 10.0 mi SSW 10.4 mph 17.3 mph N/A   Unknown
4:35 AM 75.2 °F - 66.2 °F 73% 30.01 in 10.0 mi SSW 10.4 mph - N/A   Unknown
4:55 AM 75.2 °F - 66.2 °F 73% 30.01 in 10.0 mi SSW 13.8 mph - N/A   Unknown
5:15 AM 75.2 °F - 66.2 °F 73% 30.02 in 10.0 mi SSW 11.5 mph - N/A   Clear
5:35 AM 75.2 °F - 66.2 °F 73% 30.02 in 10.0 mi SSW 12.7 mph - N/A   Unknown
5:55 AM 75.2 °F - 66.2 °F 73% 30.02 in 10.0 mi SSW 12.7 mph - N/A   Unknown
6:15 AM 75.2 °F - 66.2 °F 73% 30.03 in 10.0 mi SSW 12.7 mph - N/A   Clear
6:35 AM 75.2 °F - 66.2 °F 73% 30.03 in 10.0 mi SSW 12.7 mph - N/A   Clear
6:55 AM 75.2 °F - 66.2 °F 73% 30.04 in 10.0 mi SSW 11.5 mph - N/A   Clear
7:15 AM 75.2 °F - 66.2 °F 73% 30.05 in 10.0 mi SSW 11.5 mph - N/A   Unknown
7:35 AM 75.2 °F - 66.2 °F 73% 30.05 in 10.0 mi SW 11.5 mph - N/A   Unknown
7:55 AM 75.2 °F - 66.2 °F 73% 30.06 in 10.0 mi SW 11.5 mph - N/A   Clear
8:15 AM 77.0 °F - 66.2 °F 69% 30.06 in 10.0 mi SW 11.5 mph - N/A   Clear
8:35 AM 77.0 °F - 66.2 °F 69% 30.07 in 10.0 mi SW 10.4 mph - N/A   Clear
8:55 AM 77.0 °F - 66.2 °F 69% 30.07 in 10.0 mi SW 9.2 mph - N/A   Clear
9:15 AM 77.0 °F - 68.0 °F 74% 30.08 in 10.0 mi SW 8.1 mph - N/A   Clear
9:35 AM 77.0 °F - 68.0 °F 74% 30.09 in 10.0 mi SW 9.2 mph - N/A   Clear
9:55 AM 77.0 °F - 68.0 °F 74% 30.09 in 10.0 mi SSW 8.1 mph - N/A   Clear
10:15 AM 77.0 °F - 68.0 °F 74% 30.10 in 10.0 mi SW 9.2 mph - N/A   Clear
10:35 AM 77.0 °F - 68.0 °F 74% 30.10 in 10.0 mi SW 8.1 mph - N/A   Clear
10:55 AM 77.0 °F - 68.0 °F 74% 30.10 in 10.0 mi SSW 8.1 mph - N/A   Clear
11:15 AM 77.0 °F - 68.0 °F 74% 30.10 in 10.0 mi SSW 8.1 mph 15.0 mph N/A   Clear
11:35 AM 78.8 °F - 68.0 °F 69% 30.10 in 10.0 mi SSW 4.6 mph 11.5 mph N/A   Clear
11:55 AM 80.6 °F 83.2 °F 68.0 °F 65% 30.09 in 10.0 mi South 9.2 mph - N/A   Clear
12:15 PM 80.6 °F 83.2 °F 68.0 °F 65% 30.09 in 10.0 mi South 10.4 mph - N/A   Clear
12:35 PM 80.6 °F 83.2 °F 68.0 °F 65% 30.08 in 10.0 mi South 9.2 mph - N/A   Clear
12:55 PM 80.6 °F 83.2 °F 68.0 °F 65% 30.07 in 10.0 mi South 8.1 mph - N/A   Clear
1:15 PM 82.4 °F 86.3 °F 69.8 °F 66% 30.06 in 10.0 mi South 9.2 mph - N/A   Clear
1:35 PM 82.4 °F 85.4 °F 68.0 °F 62% 30.05 in 10.0 mi South 10.4 mph - N/A   Clear
1:55 PM 80.6 °F 83.2 °F 68.0 °F 65% 30.05 in 10.0 mi SSW 4.6 mph 11.5 mph N/A   Clear
2:15 PM 80.6 °F 83.2 °F 68.0 °F 65% 30.03 in 10.0 mi SSW 5.8 mph - N/A   Clear
2:35 PM 80.6 °F 83.2 °F 68.0 °F 65% 30.03 in 10.0 mi SSW 8.1 mph - N/A   Clear
2:55 PM 80.6 °F 83.2 °F 68.0 °F 65% 30.02 in 10.0 mi South 9.2 mph - N/A   Clear
3:15 PM 78.8 °F - 68.0 °F 69% 30.02 in 10.0 mi SSW 8.1 mph - N/A   Clear
3:35 PM 80.6 °F 83.2 °F 68.0 °F 65% 30.02 in 10.0 mi South 11.5 mph - N/A   Clear
3:55 PM 78.8 °F - 68.0 °F 69% 30.03 in 10.0 mi SSW 8.1 mph - N/A   Clear
4:15 PM 77.0 °F - 68.0 °F 74% 30.02 in 10.0 mi SSW 6.9 mph - N/A   Clear
4:35 PM 77.0 °F - 66.2 °F 69% 30.01 in 10.0 mi SSW 5.8 mph - N/A   Clear
4:55 PM 77.0 °F - 68.0 °F 74% 30.02 in 10.0 mi SSW 4.6 mph - N/A   Clear
5:15 PM 77.0 °F - 68.0 °F 74% 30.02 in 10.0 mi South 10.4 mph - N/A   Clear
5:35 PM 78.8 °F - 68.0 °F 69% 30.02 in 10.0 mi South 9.2 mph - N/A   Clear
5:55 PM 77.0 °F - 66.2 °F 69% 30.03 in 10.0 mi South 9.2 mph - N/A   Clear
6:15 PM 77.0 °F - 66.2 °F 69% 30.03 in 10.0 mi South 8.1 mph - N/A   Clear
6:35 PM 77.0 °F - 66.2 °F 69% 30.03 in 10.0 mi SSW 5.8 mph - N/A   Unknown
6:55 PM 77.0 °F - 66.2 °F 69% 30.03 in 10.0 mi SSW 5.8 mph - N/A   Unknown
7:15 PM 75.2 °F - 66.2 °F 73% 30.04 in 10.0 mi South 6.9 mph - N/A   Unknown
7:35 PM 75.2 °F - 66.2 °F 73% 30.04 in 10.0 mi SSE 5.8 mph - N/A   Unknown
7:55 PM 75.2 °F - 66.2 °F 73% 30.04 in 10.0 mi SSE 6.9 mph - N/A   Unknown
8:15 PM 75.2 °F - 69.8 °F 83% 30.05 in 10.0 mi SSE 9.2 mph - N/A   Unknown
8:35 PM 75.2 °F - 69.8 °F 83% 30.06 in 10.0 mi SE 10.4 mph - N/A   Unknown
8:55 PM 75.2 °F - 69.8 °F 83% 30.06 in 10.0 mi SSE 11.5 mph - N/A   Unknown
9:15 PM 75.2 °F - 69.8 °F 83% 30.06 in 10.0 mi SSE 9.2 mph - N/A   Unknown
9:35 PM 75.2 °F - 69.8 °F 83% 30.06 in 10.0 mi SSE 8.1 mph - N/A   Unknown
9:55 PM 75.2 °F - 69.8 °F 83% 30.06 in 10.0 mi SSE 9.2 mph - N/A   Unknown
10:15 PM 75.2 °F - 69.8 °F 83% 30.06 in 10.0 mi South 9.2 mph - N/A   Unknown
10:35 PM 75.2 °F - 69.8 °F 83% 30.06 in 10.0 mi South 9.2 mph - N/A   Unknown
10:55 PM 75.2 °F - 69.8 °F 83% 30.06 in 10.0 mi South 8.1 mph - N/A   Unknown
11:15 PM 75.2 °F - 69.8 °F 83% 30.06 in 10.0 mi WSW 11.5 mph - N/A   Unknown
11:35 PM 73.4 °F - 68.0 °F 83% 30.05 in 10.0 mi WSW 9.2 mph - N/A   Mostly Cloudy
11:55 PM 73.4 °F - 66.2 °F 78% 30.04 in 10.0 mi SW 5.8 mph - N/A   Overcast